Location: Bjelajci
(45.0103°N, 16.1758°E)
Time: 09:20:51
(UTC+00:00)

CZ-2D R/B - Pass Details

Date: 14 July 2020
Orbit: 792 x 844 km, 98.7° (Epoch: 07 August)

Event Time Altitude Azimuth Distance (km) Brightness Sun altitude
Rises 02:19:45 0° 358° (N) 3,346 6.0 -9.5°
Reaches altitude 10° 02:23:03 10° 337° (NNW) 2,420 4.9 -9.1°
Maximum altitude 02:26:00 15° 303° (WNW) 2,078 4.1 -8.7°
Drops below altitude 10° 02:28:59 10° 269° (W) 2,432 4.2 -8.3°
Enters shadow 02:30:27 - 258° (WSW) 2,802 4.4 -8.1°
